| time (UTC) | temp F | wind direction | speed MPH | gust MPH | rain 1hr in | rain 24hr in | rain mn in | humidity % | barometer mb |
| 20260505183022 | 79 | 156 | 5.0 | 16.0 | 0.00 | 0.00 | 0.00 | 44 | 1003.9 |
| 20260505181520 | 80 | 177 | 2.0 | 15.0 | 0.00 | 0.00 | 0.00 | 44 | 1004.0 |
| 20260505180022 | 76 | 260 | 5.0 | 13.0 | 0.00 | 0.00 | 0.00 | 50 | 1004.1 |
| 20260505174516 | 76 | 107 | 6.0 | 14.0 | 0.00 | 0.00 | 0.00 | 48 | 1004.1 |
| 20260505173013 | 80 | 119 | 6.0 | 15.0 | 0.00 | 0.00 | 0.00 | 43 | 1004.5 |
| 20260505171510 | 79 | 260 | 3.0 | 19.0 | 0.00 | 0.00 | 0.00 | 41 | 1004.6 |
| 20260505170008 | 79 | 175 | 3.0 | 12.0 | 0.00 | 0.00 | 0.00 | 42 | 1004.9 |
| 20260505164505 | 78 | 238 | 4.0 | 13.0 | 0.00 | 0.00 | 0.00 | 43 | 1005.5 |
| 20260505163002 | 77 | 241 | 5.0 | 12.0 | 0.00 | 0.00 | 0.00 | 43 | 1005.8 |
| 20260505161602 | 77 | 275 | 4.0 | 14.0 | 0.00 | 0.00 | 0.00 | 43 | 1006.0 |
| 20260505153101 | 73 | 262 | 3.0 | 15.0 | 0.00 | 0.00 | 0.00 | 47 | 1006.8 |
| 20260505151549 | 73 | 210 | 4.0 | 11.0 | 0.00 | 0.00 | 0.00 | 46 | 1007.1 |
| 20260505124527 | 64 | 209 | 2.0 | 5.0 | 0.00 | 0.00 | 0.00 | 58 | 1007.4 |
| 20260505123022 | 61 | 213 | 3.0 | 6.0 | 0.00 | 0.00 | 0.00 | 60 | 1007.0 |
| 20260505121520 | 60 | 190 | 3.0 | 8.0 | 0.00 | 0.00 | 0.00 | 61 | 1007.4 |
| 20260505120032 | 59 | 214 | 1.0 | 8.0 | 0.00 | 0.00 | 0.00 | 64 | 1007.5 |
| 20260505114513 | 58 | 194 | 2.0 | 6.0 | 0.00 | 0.00 | 0.00 | 65 | 1007.6 |
| 20260505113012 | 56 | 209 | 3.0 | 6.0 | 0.00 | 0.00 | 0.00 | 67 | 1007.7 |
| 20260505111519 | 52 | 210 | 2.0 | 6.0 | 0.00 | 0.00 | 0.00 | 68 | 1007.6 |
| 20260505101504 | 49 | 242 | 0.0 | 4.0 | 0.00 | 0.00 | 0.00 | 66 | 1007.8 |
| 20260505100003 | 49 | 244 | 0.0 | 4.0 | 0.00 | 0.00 | 0.00 | 68 | 1007.6 |
| 20260505094500 | 49 | 244 | 0.0 | 3.0 | 0.00 | 0.00 | 0.00 | 69 | 1007.6 |
| 20260505093058 | 50 | 245 | 0.0 | 3.0 | 0.00 | 0.00 | 0.00 | 70 | 1007.7 |
| 20260505091619 | 50 | 246 | 0.0 | 0.0 | 0.00 | 0.00 | 0.00 | 70 | 1007.7 |
| 20260505090120 | 51 | 246 | 0.0 | 0.0 | 0.00 | 0.00 | 0.00 | 70 | 1007.7 |
| 20260505084612 | 51 | 246 | 0.0 | 3.0 | 0.00 | 0.00 | 0.00 | 70 | 1007.8 |
| 20260505083106 | 52 | 246 | 0.0 | 5.0 | 0.00 | 0.00 | 0.00 | 69 | 1007.9 |
| 20260505081601 | 52 | 248 | 1.0 | 4.0 | 0.00 | 0.00 | 0.00 | 69 | 1008.0 |
| 20260505080100 | 52 | 245 | 0.0 | 5.0 | 0.00 | 0.00 | 0.00 | 69 | 1008.0 |
| 20260505074551 | 53 | 245 | 0.0 | 4.0 | 0.00 | 0.00 | 0.00 | 68 | 1007.9 |
| 20260505073055 | 53 | 248 | 1.0 | 4.0 | 0.00 | 0.00 | 0.00 | 68 | 1007.9 |
| 20260505071605 | 53 | 261 | 1.0 | 6.0 | 0.00 | 0.00 | 0.00 | 68 | 1007.8 |
| 20260505070053 | 53 | 244 | 1.0 | 5.0 | 0.00 | 0.00 | 0.00 | 68 | 1007.8 |
| 20260505064548 | 53 | 231 | 0.0 | 8.0 | 0.00 | 0.00 | 0.00 | 68 | 1007.9 |
| 20260505063052 | 53 | 234 | 2.0 | 6.0 | 0.00 | 0.00 | 0.00 | 68 | 1007.9 |
| 20260505061547 | 53 | 207 | 2.0 | 8.0 | 0.00 | 0.00 | 0.00 | 67 | 1007.8 |
| 20260505060058 | 54 | 217 | 0.0 | 6.0 | 0.00 | 0.00 | 0.00 | 67 | 1007.9 |
| 20260505054545 | 54 | 230 | 0.0 | 5.0 | 0.00 | 0.00 | 0.00 | 66 | 1007.9 |
| 20260505053045 | 55 | 227 | 2.0 | 7.0 | 0.00 | 0.00 | 0.00 | 65 | 1007.9 |
| 20260505051547 | 55 | 238 | 0.0 | 6.0 | 0.00 | 0.00 | 0.00 | 65 | 1007.9 |
| 20260505041548 | 53 | 216 | 1.0 | 6.0 | 0.00 | 0.00 | 0.00 | 67 | 1007.6 |
| 20260505040033 | 51 | 249 | 2.0 | 8.0 | 0.00 | 0.00 | 0.00 | 69 | 1007.4 |
| 20260505034526 | 50 | 246 | 3.0 | 10.0 | 0.00 | 0.00 | 0.00 | 69 | 1007.1 |
| 20260505033021 | 50 | 225 | 1.0 | 5.0 | 0.00 | 0.00 | 0.00 | 69 | 1007.2 |
| 20260505031517 | 50 | 238 | 0.0 | 0.0 | 0.00 | 0.00 | 0.00 | 69 | 1007.1 |
| 20260505030012 | 51 | 238 | 0.0 | 0.0 | 0.00 | 0.00 | 0.00 | 69 | 1007.0 |
| 20260505024508 | 51 | 238 | 0.0 | 0.0 | 0.00 | 0.00 | 0.00 | 69 | 1007.0 |
| 20260505023003 | 52 | 238 | 0.0 | 1.0 | 0.00 | 0.00 | 0.00 | 69 | 1007.0 |
| 20260505021600 | 52 | 238 | 0.0 | 0.0 | 0.00 | 0.00 | 0.00 | 68 | 1006.9 |
| 20260505020100 | 53 | 238 | 0.0 | 0.0 | 0.00 | 0.00 | 0.00 | 68 | 1006.8 |
| 20260505014606 | 53 | 238 | 0.0 | 0.0 | 0.00 | 0.00 | 0.00 | 67 | 1006.8 |
| 20260505013051 | 54 | 238 | 0.0 | 0.0 | 0.00 | 0.00 | 0.00 | 67 | 1006.6 |
| 20260505011544 | 55 | 238 | 0.0 | 0.0 | 0.00 | 0.00 | 0.00 | 67 | 1006.4 |
| 20260505010050 | 56 | 238 | 0.0 | 0.0 | 0.00 | 0.00 | 0.00 | 65 | 1006.2 |
| 20260505004545 | 57 | 238 | 0.0 | 0.0 | 0.00 | 0.00 | 0.00 | 64 | 1006.1 |
| 20260505003049 | 57 | 238 | 0.0 | 0.0 | 0.00 | 0.00 | 0.00 | 61 | 1005.8 |
| 20260505001525 | 58 | 237 | 0.0 | 0.0 | 0.00 | 0.00 | 0.00 | 59 | 1005.5 |
| 20260505000026 | 58 | 237 | 0.0 | 0.0 | 0.00 | 0.00 | 0.00 | 60 | 1005.4 |
| 20260504234516 | 58 | 237 | 0.0 | 3.0 | 0.00 | 0.00 | 0.00 | 58 | 1005.2 |
| 20260504233013 | 61 | 237 | 0.0 | 0.0 | 0.00 | 0.00 | 0.00 | 55 | 1005.2 |
| 20260504231506 | 63 | 237 | 0.0 | 2.0 | 0.00 | 0.00 | 0.00 | 48 | 1004.9 |
| 20260504230002 | 65 | 237 | 1.0 | 4.0 | 0.00 | 0.00 | 0.00 | 43 | 1004.7 |
| 20260504224559 | 66 | 237 | 2.0 | 5.0 | 0.00 | 0.00 | 0.00 | 42 | 1004.6 |
| 20260504223110 | 67 | 230 | 1.0 | 8.0 | 0.00 | 0.00 | 0.00 | 41 | 1004.6 |
| 20260504221551 | 67 | 261 | 0.0 | 6.0 | 0.00 | 0.00 | 0.00 | 42 | 1004.7 |
| 20260504220045 | 68 | 240 | 4.0 | 8.0 | 0.00 | 0.00 | 0.00 | 39 | 1004.6 |
| 20260504214541 | 68 | 257 | 2.0 | 8.0 | 0.00 | 0.00 | 0.00 | 39 | 1004.5 |
| 20260504213036 | 68 | 265 | 2.0 | 11.0 | 0.00 | 0.00 | 0.00 | 39 | 1004.6 |
| 20260504211544 | 68 | 260 | 2.0 | 9.0 | 0.00 | 0.00 | 0.00 | 40 | 1004.6 |
| 20260504210028 | 68 | 227 | 2.0 | 11.0 | 0.00 | 0.00 | 0.00 | 39 | 1004.5 |
| 20260504204523 | 68 | 249 | 5.0 | 13.0 | 0.00 | 0.00 | 0.00 | 39 | 1004.5 |
| 20260504203018 | 68 | 321 | 6.0 | 12.0 | 0.00 | 0.00 | 0.00 | 39 | 1004.6 |
| 20260504201514 | 68 | 284 | 7.0 | 15.0 | 0.00 | 0.00 | 0.00 | 40 | 1004.7 |
| 20260504200009 | 66 | 336 | 3.0 | 9.0 | 0.00 | 0.00 | 0.00 | 44 | 1004.9 |
| 20260504194505 | 66 | 283 | 5.0 | 17.0 | 0.00 | 0.00 | 0.00 | 44 | 1004.9 |
| 20260504193110 | 66 | 355 | 6.0 | 23.0 | 0.00 | 0.00 | 0.00 | 43 | 1005.0 |
| 20260504191611 | 65 | 305 | 3.0 | 12.0 | 0.00 | 0.00 | 0.00 | 45 | 1005.1 |
| 20260504190106 | 66 | 270 | 3.0 | 9.0 | 0.00 | 0.00 | 0.00 | 44 | 1005.1 |
| 20260504184552 | 65 | 272 | 3.0 | 9.0 | 0.00 | 0.00 | 0.00 | 46 | 1005.2 |